Location: Unspecified
(0.0000°N, 0.0000°E)
Time: 03:58:33
(UTC+00:00)

DMSP 5D-2 F-14 - Pass Details

Date: 06 June 2023
Orbit: 831 x 845 km, 98.9° (Epoch: 28 September)

Event Time Altitude Azimuth Distance (km) Brightness Sun altitude
Exits shadow 19:52:06 42° 42° (NE) 1,177 5.2 -26.0°
Drops below altitude 10° 19:56:08 10° 4° (N) 2,428 7.3 -26.9°
Sets 19:58:33 0° 359° (N) 3,359 8.2 -27.4°
